RH
96 89 89 86 83 89 86 88 88 79 78 77 77 76 76 76 76 76 75 74 72 70 69 68 68 68 69
95 93 90 82 86 90 81 74 78 68 72 72 71 71 72 72 70 69 68 67 63 62 61 60 59 62 60
96 91 91 94 91 86 83 84 53 55 55 62 67 69 68 66 65 64 62 61 61 65 66 65 63 62 60
91 93 93 85 84 80 83 74 70 49 50 53 51 50 52 55 64 66 66 65 64 59 59 59 60 59 58
94 96 89 81 80 76 80 79 81 76 74 68 65 66 64 60 60 58 56 56 54 54 56 57 58 58 56
96 85 74 77 79 86 88 95 93 82 76 73 66 69 72 86 60 62 63 61 57 56 56 58 54 54 52
69 73 78 86 91 94 88 90 89 80 82 82 72 74 73 59 59 57 60 64 63 64 63 63 58 56 57
78 85 84 79 82 88 83 83 84 79 82 94 88 83 82 80 58 61 66 67 65 64 62 62 60 60 61
69 64 64 64 73 88 96 96 95 83 90 92 94 93 89 85 79 66 66 64 65 65 65 63 60 65 78
79 69 76 76 67 82 95 98 98 97 92 96 97 97 97 92 89 85 84 65 56 57 60 64 66 83 92
73 78 80 82 84 85 90 96 96 98 86 95 98 94 96 95 97 96 89 87 88 88 69 69 68 72 97
75 86 89 95 96 97 92 94 95 94 95 95 98 98 97 92 94 96 97 94 97 98 92 74 73 73 74
93 95 96 98 98 97 97 92 93 92 94 95 98 99 98 97 95 90 83 96 88 96 86 84 86 81 86
95 97 98 99 98 98 97 94 97 97 93 94 95 98 100 99 95 90 84 95 97 94 86 84 80 76 90
94 96 96 97 97 96 96 95 98 98 96 95 94 93 94 95 96 89 87 95 95 93 89 89 83 79 81
95 95 95 95 95 97 96 96 97 97 94 97 97 98 96 89 81 94 95 96 96 92 85 92 90 90 88
92 94 94 94 88 96 96 96 97 97 96 94 96 98 97 93 90 64 97 99 98 98 96 95 92 87 91
Wind_Speed
2 2 2 2 1 2 2 3 4 7 8 8 9 10 9 9 8 8 7 6 5 3 0 1 3 3 3
2 2 2 1 1 1 2 3 3 5 9 10 10 8 4 4 4 4 5 5 4 3 3 4 3 4 3
3 1 2 1 1 0 2 2 2 5 7 8 8 8 9 7 8 7 6 4 4 6 7 6 5 4 4
3 2 2 2 2 2 2 2 2 3 3 4 4 4 4 4 5 5 4 4 3 2 3 2 2 2 3
2 2 1 2 2 1 2 1 3 3 3 3 2 3 2 6 6 4 3 3 2 2 2 2 2 3 3
1 2 1 2 3 1 1 3 1 3 3 3 2 2 1 3 4 3 2 2 2 2 2 3 3 1 2
4 2 3 2 2 2 2 2 1 2 3 2 2 3 2 1 3 1 2 3 3 2 0 2 3 5 5
6 5 4 3 3 4 3 1 1 2 2 1 2 2 3 3 2 2 1 2 2 2 1 1 2 4 5
9 7 6 5 5 3 2 3 2 0 4 2 2 3 2 1 2 2 1 1 1 2 3 4 5 6 3
2 3 4 4 5 4 3 3 1 3 3 3 3 2 4 2 1 1 2 5 4 4 6 6 8 3 2
4 3 3 3 2 4 4 4 2 1 1 4 1 2 0 3 3 2 2 2 2 3 5 8 10 9 3
2 2 2 2 2 3 3 2 1 3 1 2 2 1 1 3 3 3 3 4 1 2 2 7 11 12 13
2 2 3 3 3 3 1 4 3 3 3 3 4 3 1 3 4 5 8 3 5 3 3 3 4 5 6
3 2 3 2 2 3 2 1 1 2 4 5 5 4 2 3 6 7 6 5 3 2 5 5 4 5 5
2 2 3 3 3 3 3 2 3 2 1 2 4 5 5 6 7 7 8 5 4 6 6 6 6 5 6
3 3 3 3 4 2 2 3 3 2 3 2 2 1 2 7 17 8 5 6 4 6 4 5 8 4 5
4 4 4 4 7 3 4 3 4 3 3 4 4 3 4 7 4 8 7 3 2 2 2 3 7 9 4
Wind_Direction
109 73 71 63 75 138 100 81 39 48 63 57 56 59 62 70 75 76 81 84 82 71 66 282 291 301 249
120 130 99 121 129 101 92 92 83 58 67 67 66 63 65 66 74 82 77 77 72 60 49 36 42 51 38
130 125 138 217 206 201 150 134 150 84 78 67 64 57 56 70 74 73 72 65 86 83 71 63 44 20 351
120 133 124 225 98 97 47 50 42 29 41 113 86 69 70 61 74 56 45 40 43 83 64 42 13 326 305
115 85 78 54 108 322 92 32 23 26 4 4 46 24 36 45 67 55 17 346 318 292 276 258 252 229 217
132 130 148 129 64 69 86 51 22 349 44 330 51 20 63 105 74 43 2 327 255 239 240 239 245 319 278
118 102 108 102 115 45 55 101 142 292 74 346 4 24 322 127 133 348 312 291 267 266 165 324 259 242 247
91 91 102 117 125 153 181 183 18 30 73 90 354 335 329 9 60 19 346 174 155 85 85 320 301 271 260
89 90 88 96 91 79 23 64 359 96 15 91 341 321 315 312 337 86 133 112 99 333 298 282 252 252 314
66 75 85 82 77 85 128 115 96 15 313 81 3 45 345 309 308 305 329 318 308 285 276 273 279 283 281
141 143 127 130 102 88 88 122 113 202 360 94 344 326 198 298 320 309 307 293 316 307 313 311 294 281 214
155 174 166 174 147 98 87 56 44 184 275 128 220 130 352 298 258 322 336 302 240 254 285 299 295 294 288
187 201 170 160 116 82 236 211 217 249 222 174 165 235 202 253 282 299 311 318 305 265 297 290 284 282 288
196 200 133 113 159 190 173 204 219 252 238 213 198 159 230 234 269 279 277 275 310 318 274 281 279 278 266
159 168 170 175 204 210 182 190 218 226 247 245 210 209 220 233 260 256 267 261 255 267 270 277 275 269 270
191 186 194 201 207 224 184 178 216 220 236 218 208 220 253 251 237 254 248 257 253 259 260 281 284 254 247
191 196 199 206 228 201 207 197 219 205 211 219 217 210 253 268 272 258 223 238 260 291 264 277 273 282 262